64013000, 5301503, 2016-12-15 00:00:00, 13.35760, 109.26660,   0,  10,   1, -5.00, 1011.00, 14.80, 1,  10, 255, 0.000
64013000, 5301503, 2016-12-15 01:00:00, 13.35760, 109.26660,   0,  12,   1, -5.00, 1011.60, 14.80, 1,   1, 255, 0.000
64013000, 5301503, 2016-12-15 02:00:00, 13.35760, 109.26660,   0,  11,   1, -5.00, 1012.00, 14.80, 1,   8, 255, 0.000
64013000, 5301503, 2016-12-15 03:00:00, 13.35760, 109.26660,   0,  10,   1, -5.00, 1012.30, 14.80, 0,   8, 255, 0.000
64013000, 5301503, 2016-12-15 04:00:00, 13.35760, 109.26660,   0,  11,   1, -5.00, 1012.20, 14.80, 1,  10, 255, 0.000
64013000, 5301503, 2016-12-15 05:00:00, 13.35760, 109.26660,   0,  11,   1, -5.00, 1011.60, 14.80, 0,  12, 255, 0.000
64013000, 5301503, 2016-12-15 06:00:00, 13.35760, 109.26660,   0,  11,   1, -5.00, 1010.60, 14.80, 1,  10, 255, 0.000
64013000, 5301503, 2016-12-15 07:00:00, 13.35760, 109.26660,   0,  11,   1, -5.00, 1010.30, 14.80, 1,   9, 255, 0.000
64013000, 5301503, 2016-12-15 08:00:00, 13.35760, 109.26660,   0,  11,   1, -5.00, 1009.90, 14.80, 1,  20, 255, 0.000
64013000, 5301503, 2016-12-15 09:00:00, 13.35760, 109.26660,   0,  11,   1, -5.00, 1010.50, 14.80, 0,   8, 255, 0.000
64013000, 5301503, 2016-12-15 10:00:00, 13.35760, 109.26660,   0,  10,   1, -5.00, 1011.20, 14.80, 0,  13, 255, 0.000
64013000, 5301503, 2016-12-15 11:00:00, 13.35760, 109.26660,   0,  11,   1, -5.00, 1011.70, 14.80, 1,   8, 255, 0.000
64013000, 5301503, 2016-12-15 12:00:00, 13.35760, 109.26660,   0,  11,   1, -5.00, 1012.30, 14.80, 0,   8, 255, 0.000
64013000, 5301503, 2016-12-15 13:00:00, 13.35760, 109.26660,   0,  12,   1, -5.00, 1013.30, 14.80, 1,   4, 255, 0.000
64013000, 5301503, 2016-12-15 14:00:00, 13.35760, 109.26660,   0,  11,   1, -5.00, 1013.30, 14.80, 1,   7, 255, 0.000
64013000, 5301503, 2016-12-15 15:00:00, 13.35760, 109.26660,   0,  10,   1, -5.00, 1013.80, 14.80, 0,   8, 255, 0.000
64013000, 5301503, 2016-12-15 16:00:00, 13.35760, 109.26660,   0,  11,   1, -5.00, 1013.30, 14.80, 1,  11, 255, 0.000
64013000, 5301503, 2016-12-15 17:00:00, 13.35760, 109.26660,   0,  11,   1, -5.00, 1013.00, 14.80, 0,   4, 255, 0.000
64013000, 5301503, 2016-12-15 18:00:00, 13.35760, 109.26660,   0,  11,   1, -5.00, 1012.40, 14.80, 1,  10, 255, 0.000
64013000, 5301503, 2016-12-15 19:00:00, 13.35760, 109.26660,   0,  11,   1, -5.00, 1012.40, 14.80, 0,   9, 255, 0.000
64013000, 5301503, 2016-12-15 20:00:00, 13.35760, 109.26660,   0,  11,   1, -5.00, 1012.00, 14.80, 0,   7, 255, 0.000
64013000, 5301503, 2016-12-15 21:00:00, 13.35760, 109.26660,   0,  11,   1, -5.00, 1012.40, 14.80, 0,   1, 255, 0.000
64013000, 5301503, 2016-12-15 22:00:00, 13.35760, 109.26660,   0,  11,   2, -5.00, 1012.80, 14.80, 1,   7, 255, 0.000
64013000, 5301503, 2016-12-15 23:00:00, 13.35760, 109.26660,   0,  10,   1, -5.00, 1013.20, 14.80, 1,   4, 255, 0.000
64013000, 5301503, 2016-12-16 00:00:00, 13.35760, 109.26660,   0,  10,   1, -5.00, 1014.20, 14.80, 0,  12, 255, 0.000
64013000, 5301503, 2016-12-16 01:00:00, 13.35760, 109.26660,   0,  12,   2, -5.00, 1015.10, 14.80, 1,   8, 255, 0.000
64013000, 5301503, 2016-12-16 02:00:00, 13.35760, 109.26660,   0,  11,   1, -5.00, 1015.90, 14.80, 0,  10, 255, 0.000
64013000, 5301503, 2016-12-16 03:00:00, 13.35760, 109.26660,   0,  10,   1, -5.00, 1016.00, 14.80, 0,   4, 255, 0.000
64013000, 5301503, 2016-12-16 04:00:00, 13.35760, 109.26660,   0,  10,   2, -5.00, 1015.70, 14.80, 0,  10, 255, 0.000
64013000, 5301503, 2016-12-16 05:00:00, 13.35760, 109.26660,   0,  11,   1, -5.00, 1015.20, 14.80, 0,   8, 255, 0.000
64013000, 5301503, 2016-12-16 06:00:00, 13.35760, 109.26660,   0,  12,   1, -5.00, 1014.10, 14.80, 1,   8, 255, 0.000
64013000, 5301503, 2016-12-16 07:00:00, 13.35780, 109.26660,   0,  11,   1, -5.00, 1014.00, 14.80, 0,   8, 255, 0.000
64013000, 5301503, 2016-12-16 08:00:00, 13.35760, 109.26660,   0,  11,   1, -5.00, 1014.00, 14.80, 0,   9, 255, 0.000
64013000, 5301503, 2016-12-16 09:00:00, 13.35760, 109.26660,   0,  11,   1, -5.00, 1014.20, 14.80, 1,   8, 255, 0.000
64013000, 5301503, 2016-12-16 10:00:00, 13.35760, 109.26660,   0,  10,   1, -5.00, 1014.60, 14.80, 0,  11, 255, 0.000
64013000, 5301503, 2016-12-16 11:00:00, 13.35760, 109.26660,   0,  11,   1, -5.00, 1015.10, 14.80, 0,   4, 255, 0.000
64013000, 5301503, 2016-12-16 12:00:00, 13.35760, 109.26660,   0,  11,   1, -5.00, 1015.60, 14.80, 1,  10, 255, 0.000
64013000, 5301503, 2016-12-16 13:00:00, 13.35760, 109.26660,   0,  12,   1, -5.00, 1016.30, 14.80, 1,   8, 255, 0.000
64013000, 5301503, 2016-12-16 14:00:00, 13.35760, 109.26660,   0,  11,   1, -5.00, 1016.40, 14.80, 0,  10, 255, 0.000
64013000, 5301503, 2016-12-16 15:00:00, 13.35760, 109.26660,   0,  10,   1, -5.00, 1016.40, 14.80, 1,   4, 255, 0.000
64013000, 5301503, 2016-12-16 16:00:00, 13.35760, 109.26660,   0,  12,   1, -5.00, 1016.20, 14.80, 0,   9, 255, 0.000
64013000, 5301503, 2016-12-16 17:00:00, 13.35760, 109.26660,   0,  11,   1, -5.00, 1016.30, 14.80, 0,  21, 255, 0.000
64013000, 5301503, 2016-12-16 18:00:00, 13.35760, 109.26660,   0,  11,   1, -5.00, 1015.80, 14.80, 0,   9, 255, 0.000
64013000, 5301503, 2016-12-16 19:00:00, 13.35760, 109.26660,   0,  11,   1, -5.00, 1015.10, 14.80, 0,   8, 255, 0.000
64013000, 5301503, 2016-12-16 20:00:00, 13.35760, 109.26660,   0,  11,   1, -5.00, 1014.70, 14.80, 0,   9, 255, 0.000
64013000, 5301503, 2016-12-16 21:00:00, 13.35760, 109.26660,   0,  11,   1, -5.00, 1014.70, 14.80, 1,   7, 255, 0.000
64013000, 5301503, 2016-12-16 22:00:00, 13.35760, 109.26660,  63,   8,  12, -5.00, 1015.00, 14.80, 2,   1, 255, 0.000
64013000, 5301503, 2016-12-16 23:00:00, 13.35740, 109.26680,   0,   7,   8, -5.00, 1014.80, 14.80, 0,   1, 255, 0.000
64013000, 5301503, 2016-12-17 00:00:00, 13.35740, 109.26680,  60,   7,  12, -5.00, 1014.60, 14.80, 0,   9, 255, 0.000
64013000, 5301503, 2016-12-17 04:00:00, 13.35740, 109.26680, 300,   8,  12, -5.00, 1015.10, 14.80, 1,   1, 255, 0.000
64013000, 5301503, 2016-12-17 05:00:00, 13.35740, 109.26680, 360,   8,  12, -5.00, 1015.30, 14.80, 0,   9, 255, 0.000
64013000, 5301503, 2016-12-17 06:00:00, 13.35740, 109.26680, 420,   6,  12, -5.00, 1015.50, 14.80, 0,   8, 255, 0.000
64013000, 5301503, 2016-12-17 07:00:00, 13.35740, 109.26680, 480,   8,  12, -5.00, 1015.60, 14.80, 0,  11, 255, 0.000
64013000, 5301503, 2016-12-17 08:00:00, 13.35740, 109.26680,   0,   9,   1, -5.00, 1015.50, 14.80, 0,   8, 255, 0.000
64013000, 5301503, 2016-12-17 09:00:00, 13.35740, 109.26680,  63,   8,  12, -5.00, 1015.30, 14.80, 1,   8, 255, 0.000
64013000, 5301503, 2016-12-17 10:00:00, 13.35740, 109.26680, 123,   7,  12, -5.00, 1015.20, 14.80, 0,   8, 255, 0.000
